Regional Weather Roundup
Issued by NWS Wilmington, NC

Home | Current Version | Previous Version | Text Only | Print | Product List | Glossary On
Versions: 1 2 3 4 5 6 7 8 9 10 11 12 13 14 15 16 17 18 19 20 21 22 23 24 25 26 27 28 29 30 31 32 33 34 35 36 37 38 39 40 41 42 43 44 45 46 47 48 49 50
000
ASUS42 KILM 250013
RWRILM
RWRILM
REGIONAL HOURLY WEATHER ROUNDUP
NATIONAL WEATHER SERVICE WILMINGTON NC
700 PM EST FRI NOV 24 2017

NOTE: "FAIR" INDICATES FEW OR NO CLOUDS BELOW 12,000 FEET WITH NO
SIGNIFICANT WEATHER AND/OR OBSTRUCTIONS TO VISIBILITY.

...............WFO WILMINGTON COUNTY WARNING AREA...............

......COASTAL NC AND SC COUNTIES......

CITY           SKY/WX    TMP DP  RH WIND       PRES   REMARKS
WILMINGTON     CLOUDY    54  38  54 N8        29.95S
N MYRTLE BEACH PTCLDY    53  33  46 N9        29.94R
MYRTLE BEACH   PTCLDY    53  35  50 N10       29.95S

......INLAND NC AND SC COUNTIES.......

CITY           SKY/WX    TMP DP  RH WIND       PRES   REMARKS
LUMBERTON      CLOUDY    40  33  76 CALM      29.96S
ELIZABETHTOWN  NOT AVBL
WHITEVILLE     MOCLDY    52  33  48 CALM      29.95S
FLORENCE       CLOUDY    46  35  65 NE3       29.96S
DARLINGTON     CLEAR     40  33  76 CALM      29.97R
KINGSTREE      FAIR      45  41  87 CALM      29.96R
HARTSVILLE     FAIR      41  32  70 CALM      29.96S
BENNETTSVILLE  FAIR      45  32  61 CALM      29.97R
CONWAY         FAIR      45  41  87 CALM      29.95S
GEORGETOWN     MOCLDY    52  37  58 N5        29.95R
MARION         FAIR      43  36  75 CALM      29.96F

....................REST OF NORTH CAROLINA......................

.........EASTERN NC.........

CITY           SKY/WX    TMP DP  RH WIND       PRES   REMARKS
CAPE HATTERAS  CLEAR     55  50  83 N9        29.93S
JACKSONVILLE   MOCLDY    50  39  66 N5        29.96R
MOREHEAD CITY  PTCLDY    51  46  83 N9        29.94S
KENANSVILLE    CLEAR     41  34  75 CALM      29.97S
NEW BERN       MOCLDY    50  42  74 N8        29.98R
ELIZABETH CITY CLOUDY    47  43  86 N6        29.98F

.........CENTRAL NC.........

CITY           SKY/WX    TMP DP  RH WIND       PRES   REMARKS
RALEIGH DURHAM PTCLDY    42  28  57 CALM      29.98R
ROCKY MOUNT    CLEAR     37  33  85 CALM      29.98S
ROANOKE RAPIDS NOT AVBL
FAYETTEVILLE   CLEAR     45  33  63 CALM      29.97R
HOFFMAN        CLEAR     39  32  77 CALM      29.97R

.........WESTERN NC.........

CITY           SKY/WX    TMP DP  RH WIND       PRES   REMARKS
CHARLOTTE      CLEAR     50  34  54 CALM      29.97R
GREENSBORO     CLEAR     45  33  63 CALM      29.95S
HICKORY        NOT AVBL
BOONE          NOT AVBL
ASHEVILLE      NOT AVBL

.....................REST OF SOUTH CAROLINA.....................

.........EASTERN SC.........

CITY           SKY/WX    TMP DP  RH WIND       PRES   REMARKS
CHARLESTON     PTCLDY    50  41  71 N7        29.95R
BEAUFORT MCAS  CLEAR     51  45  79 CALM      29.96R
HILTON HEAD    PTCLDY    57  41  54 N6        29.96R

.........CENTRAL SC.........

CITY           SKY/WX    TMP DP  RH WIND       PRES   REMARKS
COLUMBIA       CLEAR     47  42  83 CALM      29.97R
ORANGEBURG     CLEAR     46  39  76 CALM      29.96R
SUMTER SHAW    CLEAR     46  35  64 CALM      29.94R

.........WESTERN SC.........

CITY           SKY/WX    TMP DP  RH WIND       PRES   REMARKS
GREENVILLE     NOT AVBL
ROCK HILL      CLEAR     44  36  73 CALM      29.97R
ANDERSON       CLEAR     46  40  79 CALM      29.97R
CLEMSON        NOT AVBL
GREENWOOD      CLEAR     46  37  71 CALM      29.99R


...................COASTAL AND OFFSHORE REPORTS..................

................LOCAL PIERS AND NC RESERVE................


STATION/POSITION TIME  SKY/WX   TEMP    WIND        PRES    VSBY
                                AIR SEA DIR/SP/G
                 (UTC)          (F)     (DEG/KT/KT) (MB)    (MI)
JOHNY MRCER PIER 2348            55 61   10/ 10/ 12 1013.9R
NC RESRV MASNBRO 2245            55      20/  2     1013.0
OCEAN CREST PIER NOT AVBL
SPRINGMAID  PIER 2348                               1013.1R


................COASTAL AND OFFSHORE BUOYS................


STATION/POSITION TIME  SKY/WX   TEMP    WIND        PRES    VSBY
                                AIR SEA DIR/SP/G
                 (UTC)          (F)     (DEG/KT/KT) (MB)    (MI)
DIMNDSHOAL 41025 0000            63 69   10/ 21/ 25 1013.1
CAPE LOOKOUT     0000                    10/ 15/ 17 1013.6F
ONSLOW BAY 41036 NOT AVBL
ONSLOW BAY 41064 2308            58 66   50/ 17/ 21 1013.2R
ONSLOW BAY 41159 2330               66                N/A
WVE H/P(F/S)=  7/10 SWL H/P/D(F/S/D)=  2/120/11

MASNBO INL 41110 2359               63                N/A
WVE H/P(F/S)=  5/10 SWL H/P/D(F/S/D)=  2/120/11

WILM HARBR 41108 0000               61                N/A
WVE H/P(F/S)=  4/10 SWL H/P/D(F/S/D)=  2/130/11

27SE WRITB 41037 2308            60 72   30/ 21/ 27 1012.6R
FRYING PAN 41013 2350            61 72   20/ 21/ 27 1012.0F
WVE H/P(F/S)=  8/ 9 SWL H/P/D(F/S/D)=  3/130/ 9

SUNST NRSH 41024 2308            55 60   20/  8/ 12 1013.4R
CAPRS NRSH 41029 2308            56 60  350/ 12/ 17 1013.0R
EDISTO     41004 2350            63 72   10/ 19/ 25 1012.4R
WVE H/P(F/S)=  8/10 SWL H/P/D(F/S/D)=  5/100/10



..........OFFSHORE BUOYS BEYOND 100 NM OFFSHORE...........
.....IN A TRIANGLE---HAT TO BERMUDA TO BAHAMAS TO HAT.....


STATION/POSITION TIME  SKY/WX   TEMP    WIND        PRES    VSBY
                                AIR SEA DIR/SP/G
                 (UTC)          (F)     (DEG/KT/KT) (MB)    (MI)
150E HAT   41001 NOT AVBL
W BERMUDA  41048 0000            75 76  180/ 19/ 25 1011.8
ATLANTIC S 41049 2350            78 79  110/  4/  6 1018.3R
WVE H/P(F/S)=  4/ 7 SWL H/P/D(F/S/D)=  3/100/ 7

E BAHAMAS  41046 0000            80 81  140/ 10/ 14 1016.0
NE BAHAMAS 41047 2350            74     220/ 10/ 14 1014.0R
WVE H/P(F/S)=  5/ 9 SWL H/P/D(F/S/D)=  5/ 90/ 9

120E CANVRL41010 NOT AVBL

END



USA.gov is the U.S. government's official web portal to all federal, state and local government web resources and services.